Time,TemperatureF,DewpointF,PressureIn,WindDirection,WindDirectionDegrees,WindSpeedMPH,WindSpeedGustMPH,Humidity,HourlyPrecipIn,Conditions,Clouds,dailyrainin,SoftwareType,DateUTC
2013-01-13 00:05:00,53.6,53.0,30.09,SW,215,0.0,0.0,98,0.00,,,0.00,Wunderground v.1.15,2013-01-13 05:05:00,
2013-01-13 00:15:00,53.5,52.9,30.08,SW,215,0.0,0.0,98,0.00,,,0.00,Wunderground v.1.15,2013-01-13 05:15:00,
2013-01-13 00:20:00,53.3,52.8,30.08,SW,215,0.0,0.0,98,0.00,,,0.00,Wunderground v.1.15,2013-01-13 05:20:00,
2013-01-13 00:25:00,53.0,52.2,30.08,SW,215,0.0,0.0,97,0.00,,,0.00,Wunderground v.1.15,2013-01-13 05:25:00,
2013-01-13 00:30:00,52.9,52.1,30.08,SW,215,0.0,0.0,97,0.00,,,0.00,Wunderground v.1.15,2013-01-13 05:30:00,
2013-01-13 00:35:00,53.2,52.7,30.09,SW,215,0.0,0.0,98,0.00,,,0.00,Wunderground v.1.15,2013-01-13 05:35:00,
2013-01-13 00:40:00,53.0,52.5,30.08,SW,215,0.0,0.0,98,0.00,,,0.00,Wunderground v.1.15,2013-01-13 05:40:00,
2013-01-13 00:45:00,52.7,52.2,30.09,SW,215,0.0,0.0,98,0.00,,,0.00,Wunderground v.1.15,2013-01-13 05:45:00,
2013-01-13 00:50:00,52.6,52.1,30.08,SW,215,0.0,0.0,98,0.00,,,0.00,Wunderground v.1.15,2013-01-13 05:50:00,
2013-01-13 00:55:00,52.3,51.8,30.08,SW,215,0.0,0.0,98,0.00,,,0.00,Wunderground v.1.15,2013-01-13 05:55:00,
2013-01-13 01:00:00,52.4,51.9,30.08,SW,215,0.0,0.0,98,0.00,,,0.00,Wunderground v.1.15,2013-01-13 06:00:00,
2013-01-13 01:05:00,53.0,52.5,30.09,SW,215,0.0,0.0,98,0.00,,,0.00,Wunderground v.1.15,2013-01-13 06:05:00,
2013-01-13 01:10:00,53.0,52.5,30.09,SW,215,0.0,0.0,98,0.00,,,0.00,Wunderground v.1.15,2013-01-13 06:10:00,
2013-01-13 01:15:00,52.9,52.4,30.09,SW,215,0.0,0.0,98,0.00,,,0.00,Wunderground v.1.15,2013-01-13 06:15:00,
2013-01-13 01:20:00,52.7,52.2,30.09,SW,215,0.0,0.0,98,0.00,,,0.00,Wunderground v.1.15,2013-01-13 06:20:00,
2013-01-13 01:25:00,52.9,52.4,30.09,SW,215,0.0,0.0,98,0.00,,,0.00,Wunderground v.1.15,2013-01-13 06:25:00,
2013-01-13 01:30:00,53.0,52.5,30.09,SW,215,0.0,0.0,98,0.00,,,0.00,Wunderground v.1.15,2013-01-13 06:30:00,
2013-01-13 01:35:00,53.3,52.8,30.09,SW,215,0.0,0.0,98,0.00,,,0.00,Wunderground v.1.15,2013-01-13 06:35:00,
2013-01-13 01:40:00,53.2,52.7,30.09,SW,215,0.0,0.0,98,0.00,,,0.00,Wunderground v.1.15,2013-01-13 06:40:00,
2013-01-13 01:50:00,53.3,52.8,30.09,SW,215,0.0,0.0,98,0.00,,,0.00,Wunderground v.1.15,2013-01-13 06:50:00,
2013-01-13 01:55:00,53.5,52.9,30.09,SW,215,0.0,0.0,98,0.00,,,0.00,Wunderground v.1.15,2013-01-13 06:55:00,
2013-01-13 02:00:00,53.3,52.8,30.09,SW,215,0.0,0.0,98,0.00,,,0.00,Wunderground v.1.15,2013-01-13 07:00:00,
2013-01-13 02:05:00,53.0,52.5,30.09,SW,215,0.0,0.0,98,0.00,,,0.00,Wunderground v.1.15,2013-01-13 07:05:00,
2013-01-13 02:10:00,52.7,52.2,30.09,SW,215,0.0,0.0,98,0.00,,,0.00,Wunderground v.1.15,2013-01-13 07:10:00,
2013-01-13 02:15:00,52.4,51.9,30.09,SW,215,0.0,0.0,98,0.00,,,0.00,Wunderground v.1.15,2013-01-13 07:15:00,
2013-01-13 02:20:00,52.3,51.8,30.09,SW,215,0.0,0.0,98,0.00,,,0.00,Wunderground v.1.15,2013-01-13 07:20:00,
2013-01-13 02:25:00,52.4,51.9,30.09,SW,215,0.0,0.0,98,0.00,,,0.00,Wunderground v.1.15,2013-01-13 07:25:00,
2013-01-13 02:30:00,52.4,51.9,30.09,SW,215,0.0,0.0,98,0.00,,,0.00,Wunderground v.1.15,2013-01-13 07:30:00,
2013-01-13 02:35:00,52.1,51.6,30.09,SW,215,0.0,0.0,98,0.00,,,0.00,Wunderground v.1.15,2013-01-13 07:35:00,
2013-01-13 02:40:00,51.8,51.3,30.09,SW,215,0.0,0.0,98,0.00,,,0.00,Wunderground v.1.15,2013-01-13 07:40:00,
2013-01-13 02:45:00,51.4,50.9,30.09,SW,215,0.0,0.0,98,0.00,,,0.00,Wunderground v.1.15,2013-01-13 07:45:00,
2013-01-13 02:50:00,51.3,50.8,30.09,SW,215,0.0,0.0,98,0.00,,,0.00,Wunderground v.1.15,2013-01-13 07:50:00,
2013-01-13 02:55:00,52.0,51.5,30.09,SW,215,0.0,0.0,98,0.00,,,0.00,Wunderground v.1.15,2013-01-13 07:55:00,
2013-01-13 03:00:00,52.4,51.9,30.09,SW,215,0.0,0.0,98,0.00,,,0.00,Wunderground v.1.15,2013-01-13 08:00:00,
2013-01-13 03:05:00,52.3,51.8,30.08,SW,215,0.0,0.0,98,0.00,,,0.00,Wunderground v.1.15,2013-01-13 08:05:00,
2013-01-13 03:10:00,52.4,51.9,30.08,SW,215,0.0,0.0,98,0.00,,,0.00,Wunderground v.1.15,2013-01-13 08:10:00,
2013-01-13 03:15:00,52.6,52.1,30.08,SW,215,0.0,0.0,98,0.00,,,0.00,Wunderground v.1.15,2013-01-13 08:15:00,
2013-01-13 03:20:00,52.7,52.2,30.08,SW,215,0.0,0.0,98,0.00,,,0.00,Wunderground v.1.15,2013-01-13 08:20:00,
2013-01-13 03:25:00,52.7,52.2,30.08,SW,215,0.0,0.0,98,0.00,,,0.00,Wunderground v.1.15,2013-01-13 08:25:00,
2013-01-13 03:30:00,52.6,52.1,30.08,SW,215,0.0,0.0,98,0.00,,,0.00,Wunderground v.1.15,2013-01-13 08:30:00,
2013-01-13 03:35:00,52.6,52.1,30.08,SW,215,0.0,0.0,98,0.00,,,0.00,Wunderground v.1.15,2013-01-13 08:35:00,
2013-01-13 03:40:00,52.6,52.1,30.08,SW,215,0.0,0.0,98,0.00,,,0.00,Wunderground v.1.15,2013-01-13 08:40:00,
2013-01-13 03:45:00,53.0,52.5,30.08,SW,215,0.0,0.0,98,0.00,,,0.00,Wunderground v.1.15,2013-01-13 08:45:00,
2013-01-13 03:50:00,53.5,52.9,30.07,SW,215,0.0,0.0,98,0.00,,,0.00,Wunderground v.1.15,2013-01-13 08:50:00,
2013-01-13 03:55:00,53.5,52.9,30.07,SW,215,0.0,0.0,98,0.00,,,0.00,Wunderground v.1.15,2013-01-13 08:55:00,
2013-01-13 04:00:00,53.6,53.0,30.07,SW,215,0.0,0.0,98,0.00,,,0.00,Wunderground v.1.15,2013-01-13 09:00:00,
2013-01-13 04:05:00,53.6,53.0,30.07,SW,215,0.0,0.0,98,0.00,,,0.00,Wunderground v.1.15,2013-01-13 09:05:00,
2013-01-13 04:10:00,53.8,53.2,30.07,SW,215,0.0,0.0,98,0.00,,,0.00,Wunderground v.1.15,2013-01-13 09:10:00,
2013-01-13 04:15:00,53.9,53.3,30.07,SW,215,0.0,0.0,98,0.00,,,0.00,Wunderground v.1.15,2013-01-13 09:15:00,
2013-01-13 04:20:00,54.1,53.5,30.07,SW,215,0.0,0.0,98,0.00,,,0.00,Wunderground v.1.15,2013-01-13 09:20:00,
2013-01-13 04:25:00,53.9,53.3,30.07,SW,215,0.0,0.0,98,0.00,,,0.00,Wunderground v.1.15,2013-01-13 09:25:00,
2013-01-13 04:30:00,53.8,53.2,30.07,SW,215,0.0,0.0,98,0.00,,,0.00,Wunderground v.1.15,2013-01-13 09:30:00,
2013-01-13 04:35:00,53.8,53.2,30.07,SW,215,0.0,0.0,98,0.00,,,0.00,Wunderground v.1.15,2013-01-13 09:35:00,
2013-01-13 04:40:00,53.5,52.9,30.07,SW,215,0.0,0.0,98,0.00,,,0.00,Wunderground v.1.15,2013-01-13 09:40:00,
2013-01-13 04:45:00,53.6,53.0,30.07,SW,215,0.0,0.0,98,0.00,,,0.00,Wunderground v.1.15,2013-01-13 09:45:00,
2013-01-13 04:50:00,53.8,53.2,30.07,SW,215,0.0,0.0,98,0.00,,,0.00,Wunderground v.1.15,2013-01-13 09:50:00,
2013-01-13 04:55:00,53.6,53.0,30.07,SW,215,0.0,0.0,98,0.00,,,0.00,Wunderground v.1.15,2013-01-13 09:55:00,
2013-01-13 05:00:00,53.5,52.9,30.06,SW,215,0.0,0.0,98,0.00,,,0.00,Wunderground v.1.15,2013-01-13 10:00:00,
2013-01-13 05:10:00,53.5,52.9,30.06,SW,215,0.0,0.0,98,0.00,,,0.00,Wunderground v.1.15,2013-01-13 10:10:00,
2013-01-13 05:15:00,53.3,52.8,30.06,SW,215,0.0,0.0,98,0.00,,,0.00,Wunderground v.1.15,2013-01-13 10:15:00,
2013-01-13 05:20:00,53.2,52.7,30.06,SW,215,0.0,0.0,98,0.00,,,0.00,Wunderground v.1.15,2013-01-13 10:20:00,
2013-01-13 05:25:00,53.0,52.5,30.06,SW,215,0.0,0.0,98,0.00,,,0.00,Wunderground v.1.15,2013-01-13 10:25:00,
2013-01-13 05:30:00,53.0,52.5,30.06,SW,215,0.0,0.0,98,0.00,,,0.00,Wunderground v.1.15,2013-01-13 10:30:00,
2013-01-13 05:35:00,53.5,52.9,30.07,SW,215,0.0,0.0,98,0.00,,,0.00,Wunderground v.1.15,2013-01-13 10:35:00,
2013-01-13 05:40:00,53.8,53.2,30.07,SW,215,0.0,0.0,98,0.00,,,0.00,Wunderground v.1.15,2013-01-13 10:40:00,
2013-01-13 05:45:00,53.9,53.3,30.07,SW,215,0.0,0.0,98,0.00,,,0.00,Wunderground v.1.15,2013-01-13 10:45:00,
2013-01-13 05:50:00,54.1,53.5,30.07,SW,215,0.0,0.0,98,0.00,,,0.00,Wunderground v.1.15,2013-01-13 10:50:00,
2013-01-13 05:55:00,53.8,53.2,30.07,SW,215,0.0,0.0,98,0.00,,,0.00,Wunderground v.1.15,2013-01-13 10:55:00,
2013-01-13 06:00:00,53.5,52.9,30.07,SW,215,0.0,0.0,98,0.00,,,0.00,Wunderground v.1.15,2013-01-13 11:00:00,
2013-01-13 06:10:00,53.8,53.2,30.07,SW,215,0.0,0.0,98,0.00,,,0.00,Wunderground v.1.15,2013-01-13 11:10:00,
2013-01-13 06:15:00,53.5,52.9,30.07,SW,215,0.0,0.0,98,0.00,,,0.00,Wunderground v.1.15,2013-01-13 11:15:00,
2013-01-13 06:20:00,53.3,52.8,30.07,SW,215,0.0,0.0,98,0.00,,,0.00,Wunderground v.1.15,2013-01-13 11:20:00,
2013-01-13 06:25:00,53.6,53.0,30.08,SW,215,0.0,0.0,98,0.00,,,0.00,Wunderground v.1.15,2013-01-13 11:25:00,
2013-01-13 06:30:00,53.8,53.2,30.08,SW,215,0.0,0.0,98,0.00,,,0.00,Wunderground v.1.15,2013-01-13 11:30:00,
2013-01-13 06:35:00,53.8,53.2,30.08,SW,215,0.0,0.0,98,0.00,,,0.00,Wunderground v.1.15,2013-01-13 11:35:00,
2013-01-13 06:40:00,53.9,53.3,30.08,SW,215,0.0,0.0,98,0.00,,,0.00,Wunderground v.1.15,2013-01-13 11:40:00,
2013-01-13 06:45:00,53.9,53.3,30.08,SW,215,0.0,0.0,98,0.00,,,0.00,Wunderground v.1.15,2013-01-13 11:45:00,
2013-01-13 06:50:00,53.9,53.3,30.09,SW,215,0.0,0.0,98,0.00,,,0.00,Wunderground v.1.15,2013-01-13 11:50:00,
2013-01-13 07:00:00,54.1,53.5,30.08,SW,215,0.0,0.0,98,0.00,,,0.00,Wunderground v.1.15,2013-01-13 12:00:00,
2013-01-13 07:10:00,53.2,52.7,30.09,SW,215,0.0,0.0,98,0.00,,,0.00,Wunderground v.1.15,2013-01-13 12:10:00,
2013-01-13 07:20:00,53.5,52.9,30.08,SW,215,0.0,0.0,98,0.00,,,0.00,Wunderground v.1.15,2013-01-13 12:20:00,
2013-01-13 07:30:00,53.0,52.5,30.09,SW,215,0.0,0.0,98,0.00,,,0.00,Wunderground v.1.15,2013-01-13 12:30:00,
2013-01-13 07:35:00,53.2,52.7,30.10,SW,215,0.0,0.0,98,0.00,,,0.00,Wunderground v.1.15,2013-01-13 12:35:00,
2013-01-13 07:40:00,53.2,52.7,30.10,SW,215,0.0,0.0,98,0.00,,,0.00,Wunderground v.1.15,2013-01-13 12:40:00,
2013-01-13 07:45:00,53.2,52.7,30.09,SW,215,0.0,0.0,98,0.00,,,0.00,Wunderground v.1.15,2013-01-13 12:45:00,
2013-01-13 07:50:00,52.9,52.4,30.09,SW,215,0.0,0.0,98,0.00,,,0.00,Wunderground v.1.15,2013-01-13 12:50:00,
2013-01-13 07:55:00,52.7,52.2,30.09,SW,215,0.0,0.0,98,0.00,,,0.00,Wunderground v.1.15,2013-01-13 12:55:00,
2013-01-13 08:00:00,53.0,52.5,30.09,SW,215,0.0,0.0,98,0.00,,,0.00,Wunderground v.1.15,2013-01-13 13:00:00,
2013-01-13 08:05:00,53.5,52.9,30.09,SW,215,0.0,1.0,98,0.00,,,0.00,Wunderground v.1.15,2013-01-13 13:05:00,
2013-01-13 08:10:00,54.2,53.6,30.09,SSW,209,0.0,0.0,98,0.00,,,0.00,Wunderground v.1.15,2013-01-13 13:10:00,
2013-01-13 08:15:00,54.5,53.9,30.10,SSW,209,0.0,0.0,98,0.00,,,0.00,Wunderground v.1.15,2013-01-13 13:15:00,
2013-01-13 08:20:00,54.8,54.2,30.10,SSW,209,0.0,0.0,98,0.00,,,0.00,Wunderground v.1.15,2013-01-13 13:20:00,
2013-01-13 08:25:00,55.1,54.5,30.10,SSW,209,0.0,0.0,98,0.00,,,0.00,Wunderground v.1.15,2013-01-13 13:25:00,
2013-01-13 08:30:00,55.4,54.8,30.10,SSW,209,0.0,0.0,98,0.00,,,0.00,Wunderground v.1.15,2013-01-13 13:30:00,
2013-01-13 08:35:00,55.7,55.1,30.10,SSW,205,0.0,0.0,98,0.00,,,0.00,Wunderground v.1.15,2013-01-13 13:35:00,
2013-01-13 08:40:00,56.0,55.4,30.10,SSW,205,1.0,1.0,98,0.00,,,0.00,Wunderground v.1.15,2013-01-13 13:40:00,
2013-01-13 08:45:00,56.1,55.8,30.11,SSW,205,1.0,1.0,99,0.00,,,0.00,Wunderground v.1.15,2013-01-13 13:45:00,
2013-01-13 08:50:00,56.5,56.2,30.11,SSW,205,1.0,1.0,99,0.00,,,0.00,Wunderground v.1.15,2013-01-13 13:50:00,
2013-01-13 08:55:00,56.8,56.5,30.11,SSW,205,1.0,2.0,99,0.00,,,0.00,Wunderground v.1.15,2013-01-13 13:55:00,
2013-01-13 09:00:00,56.9,56.6,30.11,SSW,205,1.0,2.0,99,0.00,,,0.00,Wunderground v.1.15,2013-01-13 14:00:00,
2013-01-13 09:05:00,57.1,56.8,30.11,SSW,205,1.0,2.0,99,0.00,,,0.00,Wunderground v.1.15,2013-01-13 14:05:00,
2013-01-13 09:10:00,57.2,56.9,30.11,SSW,205,1.0,1.0,99,0.00,,,0.00,Wunderground v.1.15,2013-01-13 14:10:00,
2013-01-13 09:15:00,57.2,56.9,30.11,SW,221,1.0,2.0,99,0.00,,,0.00,Wunderground v.1.15,2013-01-13 14:15:00,
2013-01-13 09:20:00,57.2,56.6,30.12,SW,221,1.0,1.0,98,0.00,,,0.00,Wunderground v.1.15,2013-01-13 14:20:00,
2013-01-13 09:25:00,57.2,56.6,30.12,SW,221,1.0,2.0,98,0.00,,,0.00,Wunderground v.1.15,2013-01-13 14:25:00,
2013-01-13 09:30:00,57.4,56.8,30.12,SSW,209,1.0,1.0,98,0.00,,,0.00,Wunderground v.1.15,2013-01-13 14:30:00,
2013-01-13 09:35:00,57.5,56.9,30.12,SW,236,2.0,2.0,98,0.00,,,0.00,Wunderground v.1.15,2013-01-13 14:35:00,
2013-01-13 09:40:00,57.5,56.9,30.12,SW,236,1.0,1.0,98,0.00,,,0.00,Wunderground v.1.15,2013-01-13 14:40:00,
2013-01-13 09:45:00,57.7,57.1,30.12,WSW,238,1.0,2.0,98,0.00,,,0.00,Wunderground v.1.15,2013-01-13 14:45:00,
2013-01-13 09:50:00,58.0,57.4,30.12,SW,236,2.0,5.0,98,0.00,,,0.00,Wunderground v.1.15,2013-01-13 14:50:00,
2013-01-13 09:55:00,58.3,57.7,30.12,SW,231,3.0,5.0,98,0.00,,,0.00,Wunderground v.1.15,2013-01-13 14:55:00,
2013-01-13 10:00:00,58.6,57.8,30.12,SW,221,3.0,4.0,97,0.00,,,0.00,Wunderground v.1.15,2013-01-13 15:00:00,
2013-01-13 10:10:00,59.0,57.3,30.11,SW,222,2.0,2.0,94,0.00,,,0.00,Wunderground v.1.15,2013-01-13 15:10:00,
2013-01-13 10:15:00,59.2,56.9,30.11,SW,223,2.0,4.0,92,0.00,,,0.00,Wunderground v.1.15,2013-01-13 15:15:00,
2013-01-13 10:20:00,59.8,57.2,30.11,SSW,202,3.0,4.0,91,0.00,,,0.00,Wunderground v.1.15,2013-01-13 15:20:00,
2013-01-13 10:25:00,60.5,56.9,30.11,SW,215,3.0,5.0,88,0.00,,,0.00,Wunderground v.1.15,2013-01-13 15:25:00,
2013-01-13 10:30:00,61.1,56.9,30.11,South,189,4.0,6.0,86,0.00,,,0.00,Wunderground v.1.15,2013-01-13 15:30:00,
2013-01-13 10:40:00,61.7,56.8,30.11,SW,214,3.0,3.0,84,0.00,,,0.00,Wunderground v.1.15,2013-01-13 15:40:00,
2013-01-13 10:45:00,62.0,57.1,30.11,SW,225,2.0,3.0,84,0.00,,,0.00,Wunderground v.1.15,2013-01-13 15:45:00,
2013-01-13 10:50:00,62.4,56.8,30.11,WSW,239,2.0,2.0,82,0.00,,,0.00,Wunderground v.1.15,2013-01-13 15:50:00,
2013-01-13 11:00:00,63.2,56.9,30.10,SSW,213,3.0,3.0,80,0.00,,,0.00,Wunderground v.1.15,2013-01-13 16:00:00,
2013-01-13 11:05:00,63.7,57.1,30.10,SSW,211,3.0,5.0,79,0.00,,,0.00,Wunderground v.1.15,2013-01-13 16:05:00,
2013-01-13 11:10:00,64.3,56.9,30.10,SW,229,3.0,3.0,77,0.00,,,0.00,Wunderground v.1.15,2013-01-13 16:10:00,
2013-01-13 11:15:00,64.9,57.5,30.09,SW,218,4.0,4.0,77,0.00,,,0.00,Wunderground v.1.15,2013-01-13 16:15:00,
2013-01-13 11:20:00,65.4,57.3,30.09,SW,233,4.0,6.0,75,0.00,,,0.00,Wunderground v.1.15,2013-01-13 16:20:00,
2013-01-13 11:30:00,66.6,58.1,30.08,SW,231,2.0,2.0,74,0.00,,,0.00,Wunderground v.1.15,2013-01-13 16:30:00,
2013-01-13 11:35:00,66.9,57.6,30.08,West,259,3.0,3.0,72,0.00,,,0.00,Wunderground v.1.15,2013-01-13 16:35:00,
2013-01-13 11:40:00,67.3,57.6,30.08,West,274,3.0,6.0,71,0.00,,,0.00,Wunderground v.1.15,2013-01-13 16:40:00,
2013-01-13 11:50:00,67.6,57.5,30.07,West,269,4.0,5.0,70,0.00,,,0.00,Wunderground v.1.15,2013-01-13 16:50:00,
2013-01-13 11:55:00,67.9,57.8,30.07,SW,219,4.0,5.0,70,0.00,,,0.00,Wunderground v.1.15,2013-01-13 16:55:00,
2013-01-13 12:00:00,68.4,57.8,30.07,SW,232,4.0,4.0,69,0.00,,,0.00,Wunderground v.1.15,2013-01-13 17:00:00,
2013-01-13 12:05:00,68.8,57.8,30.07,South,190,4.0,4.0,68,0.00,,,0.00,Wunderground v.1.15,2013-01-13 17:05:00,
2013-01-13 12:10:00,68.9,57.9,30.07,SSW,207,4.0,4.0,68,0.00,,,0.00,Wunderground v.1.15,2013-01-13 17:10:00,
2013-01-13 12:15:00,68.8,57.8,30.07,SW,230,5.0,5.0,68,0.00,,,0.00,Wunderground v.1.15,2013-01-13 17:15:00,
2013-01-13 12:20:00,68.8,58.2,30.06,SW,228,4.0,4.0,69,0.00,,,0.00,Wunderground v.1.15,2013-01-13 17:20:00,
2013-01-13 12:25:00,69.1,58.1,30.06,SW,216,3.0,4.0,68,0.00,,,0.00,Wunderground v.1.15,2013-01-13 17:25:00,
2013-01-13 12:30:00,69.1,57.7,30.05,WSW,253,4.0,4.0,67,0.00,,,0.00,Wunderground v.1.15,2013-01-13 17:30:00,
2013-01-13 12:40:00,69.4,58.4,30.05,SW,225,3.0,5.0,68,0.00,,,0.00,Wunderground v.1.15,2013-01-13 17:40:00,
2013-01-13 12:45:00,69.4,58.0,30.05,West,260,3.0,5.0,67,0.00,,,0.00,Wunderground v.1.15,2013-01-13 17:45:00,
2013-01-13 12:50:00,69.4,58.0,30.05,West,273,3.0,3.0,67,0.00,,,0.00,Wunderground v.1.15,2013-01-13 17:50:00,
2013-01-13 12:55:00,69.4,58.0,30.05,SW,225,2.0,3.0,67,0.00,,,0.00,Wunderground v.1.15,2013-01-13 17:55:00,
2013-01-13 13:00:00,69.4,58.0,30.05,WSW,254,3.0,3.0,67,0.00,,,0.00,Wunderground v.1.15,2013-01-13 18:00:00,
2013-01-13 13:05:00,69.4,58.0,30.04,WSW,255,3.0,3.0,67,0.00,,,0.00,Wunderground v.1.15,2013-01-13 18:05:00,
2013-01-13 13:10:00,69.4,58.0,30.04,WSW,248,3.0,3.0,67,0.00,,,0.00,Wunderground v.1.15,2013-01-13 18:10:00,
2013-01-13 13:15:00,69.4,58.0,30.04,SW,232,3.0,7.0,67,0.00,,,0.00,Wunderground v.1.15,2013-01-13 18:15:00,
2013-01-13 13:20:00,69.8,57.9,30.04,SW,221,3.0,6.0,66,0.00,,,0.00,Wunderground v.1.15,2013-01-13 18:20:00,
2013-01-13 13:30:00,70.1,57.8,30.04,WSW,246,3.0,3.0,65,0.00,,,0.00,Wunderground v.1.15,2013-01-13 18:30:00,
2013-01-13 13:35:00,70.5,57.7,30.04,SSW,198,4.0,4.0,64,0.00,,,0.00,Wunderground v.1.15,2013-01-13 18:35:00,
2013-01-13 13:40:00,70.8,58.0,30.04,SSW,210,5.0,5.0,64,0.00,,,0.00,Wunderground v.1.15,2013-01-13 18:40:00,
2013-01-13 13:45:00,71.0,57.8,30.03,WSW,250,5.0,5.0,63,0.00,,,0.00,Wunderground v.1.15,2013-01-13 18:45:00,
2013-01-13 13:50:00,71.3,57.6,30.03,SW,231,4.0,6.0,62,0.00,,,0.00,Wunderground v.1.15,2013-01-13 18:50:00,
2013-01-13 13:55:00,71.5,57.8,30.03,SSW,207,4.0,6.0,62,0.00,,,0.00,Wunderground v.1.15,2013-01-13 18:55:00,
2013-01-13 14:00:00,71.8,57.6,30.03,SSW,205,5.0,5.0,61,0.00,,,0.00,Wunderground v.1.15,2013-01-13 19:00:00,
2013-01-13 14:10:00,71.2,57.5,30.03,SW,235,3.0,4.0,62,0.00,,,0.00,Wunderground v.1.15,2013-01-13 19:10:00,
2013-01-13 14:15:00,71.0,57.3,30.03,WSW,238,4.0,4.0,62,0.00,,,0.00,Wunderground v.1.15,2013-01-13 19:15:00,
2013-01-13 14:20:00,71.0,57.8,30.03,West,264,3.0,3.0,63,0.00,,,0.00,Wunderground v.1.15,2013-01-13 19:20:00,
2013-01-13 14:25:00,71.3,57.6,30.03,South,184,2.0,3.0,62,0.00,,,0.00,Wunderground v.1.15,2013-01-13 19:25:00,
2013-01-13 14:30:00,71.3,57.2,30.03,SW,234,3.0,5.0,61,0.00,,,0.00,Wunderground v.1.15,2013-01-13 19:30:00,
2013-01-13 14:35:00,71.0,56.9,30.03,SSW,204,4.0,6.0,61,0.00,,,0.00,Wunderground v.1.15,2013-01-13 19:35:00,
2013-01-13 14:40:00,70.8,57.1,30.04,SW,228,5.0,5.0,62,0.00,,,0.00,Wunderground v.1.15,2013-01-13 19:40:00,
2013-01-13 14:45:00,71.0,56.9,30.04,SW,221,5.0,5.0,61,0.00,,,0.00,Wunderground v.1.15,2013-01-13 19:45:00,
2013-01-13 14:50:00,71.2,57.1,30.04,WSW,238,3.0,5.0,61,0.00,,,0.00,Wunderground v.1.15,2013-01-13 19:50:00,
2013-01-13 14:55:00,71.0,56.9,30.04,SW,225,3.0,5.0,61,0.00,,,0.00,Wunderground v.1.15,2013-01-13 19:55:00,
2013-01-13 15:00:00,71.2,57.1,30.03,West,264,4.0,4.0,61,0.00,,,0.00,Wunderground v.1.15,2013-01-13 20:00:00,
2013-01-13 15:05:00,71.3,57.2,30.03,SSW,207,3.0,5.0,61,0.00,,,0.00,Wunderground v.1.15,2013-01-13 20:05:00,
2013-01-13 15:10:00,71.2,56.6,30.04,SW,234,4.0,4.0,60,0.00,,,0.00,Wunderground v.1.15,2013-01-13 20:10:00,
2013-01-13 15:20:00,71.0,56.4,30.04,South,188,5.0,5.0,60,0.00,,,0.00,Wunderground v.1.15,2013-01-13 20:20:00,
2013-01-13 15:30:00,70.8,56.7,30.04,SW,232,4.0,4.0,61,0.00,,,0.00,Wunderground v.1.15,2013-01-13 20:30:00,
2013-01-13 15:35:00,70.6,56.9,30.04,WSW,255,3.0,4.0,62,0.00,,,0.00,Wunderground v.1.15,2013-01-13 20:35:00,
2013-01-13 15:40:00,70.5,56.9,30.05,South,191,2.0,3.0,62,0.00,,,0.00,Wunderground v.1.15,2013-01-13 20:40:00,
2013-01-13 15:45:00,70.3,56.7,30.05,SW,217,3.0,3.0,62,0.00,,,0.00,Wunderground v.1.15,2013-01-13 20:45:00,
2013-01-13 15:50:00,70.3,57.1,30.05,SW,225,2.0,2.0,63,0.00,,,0.00,Wunderground v.1.15,2013-01-13 20:50:00,
2013-01-13 15:55:00,70.5,57.3,30.05,SW,217,2.0,2.0,63,0.00,,,0.00,Wunderground v.1.15,2013-01-13 20:55:00,
2013-01-13 16:00:00,70.3,57.1,30.05,SSW,197,2.0,2.0,63,0.00,,,0.00,Wunderground v.1.15,2013-01-13 21:00:00,
2013-01-13 16:05:00,70.3,57.1,30.05,SSW,204,2.0,2.0,63,0.00,,,0.00,Wunderground v.1.15,2013-01-13 21:05:00,
2013-01-13 16:10:00,70.3,57.1,30.05,South,171,2.0,2.0,63,0.00,,,0.00,Wunderground v.1.15,2013-01-13 21:10:00,
2013-01-13 16:15:00,70.5,57.3,30.05,SSW,196,2.0,2.0,63,0.00,,,0.00,Wunderground v.1.15,2013-01-13 21:15:00,
2013-01-13 16:20:00,70.5,57.3,30.05,SSE,167,2.0,2.0,63,0.00,,,0.00,Wunderground v.1.15,2013-01-13 21:20:00,
2013-01-13 16:25:00,70.3,57.5,30.05,SSW,200,1.0,2.0,64,0.00,,,0.00,Wunderground v.1.15,2013-01-13 21:25:00,
2013-01-13 16:35:00,70.0,57.3,30.05,SSW,200,1.0,1.0,64,0.00,,,0.00,Wunderground v.1.15,2013-01-13 21:35:00,
2013-01-13 16:40:00,69.8,57.5,30.05,SSW,200,1.0,2.0,65,0.00,,,0.00,Wunderground v.1.15,2013-01-13 21:40:00,
2013-01-13 16:45:00,69.4,57.1,30.05,South,183,1.0,2.0,65,0.00,,,0.00,Wunderground v.1.15,2013-01-13 21:45:00,
2013-01-13 16:50:00,69.3,57.0,30.05,South,180,1.0,1.0,65,0.00,,,0.00,Wunderground v.1.15,2013-01-13 21:50:00,
2013-01-13 16:55:00,68.9,56.6,30.05,South,180,1.0,1.0,65,0.00,,,0.00,Wunderground v.1.15,2013-01-13 21:55:00,
2013-01-13 17:00:00,68.6,56.4,30.05,South,180,1.0,1.0,65,0.00,,,0.00,Wunderground v.1.15,2013-01-13 22:00:00,
2013-01-13 17:10:00,68.1,56.3,30.05,South,177,0.0,0.0,66,0.00,,,0.00,Wunderground v.1.15,2013-01-13 22:10:00,
2013-01-13 17:15:00,67.9,56.1,30.05,South,177,0.0,0.0,66,0.00,,,0.00,Wunderground v.1.15,2013-01-13 22:15:00,
2013-01-13 17:20:00,67.8,56.4,30.05,South,177,0.0,1.0,67,0.00,,,0.00,Wunderground v.1.15,2013-01-13 22:20:00,
2013-01-13 17:25:00,67.4,56.5,30.05,South,177,0.0,1.0,68,0.00,,,0.00,Wunderground v.1.15,2013-01-13 22:25:00,
2013-01-13 17:30:00,67.1,56.6,30.05,South,177,0.0,0.0,69,0.00,,,0.00,Wunderground v.1.15,2013-01-13 22:30:00,
2013-01-13 17:40:00,66.6,56.5,30.05,South,177,0.0,0.0,70,0.00,,,0.00,Wunderground v.1.15,2013-01-13 22:40:00,
2013-01-13 17:50:00,66.3,56.2,30.05,South,177,0.0,0.0,70,0.00,,,0.00,Wunderground v.1.15,2013-01-13 22:50:00,
2013-01-13 17:55:00,65.9,56.2,30.05,South,177,0.0,0.0,71,0.00,,,0.00,Wunderground v.1.15,2013-01-13 22:55:00,
2013-01-13 18:00:00,65.6,56.3,30.05,South,177,0.0,0.0,72,0.00,,,0.00,Wunderground v.1.15,2013-01-13 23:00:00,
2013-01-13 18:05:00,65.4,56.1,30.05,South,177,0.0,0.0,72,0.00,,,0.00,Wunderground v.1.15,2013-01-13 23:05:00,
2013-01-13 18:10:00,65.3,56.0,30.05,South,177,0.0,0.0,72,0.00,,,0.00,Wunderground v.1.15,2013-01-13 23:10:00,
2013-01-13 18:15:00,65.1,56.2,30.05,South,177,0.0,0.0,73,0.00,,,0.00,Wunderground v.1.15,2013-01-13 23:15:00,
2013-01-13 18:20:00,64.8,55.9,30.06,South,177,0.0,0.0,73,0.00,,,0.00,Wunderground v.1.15,2013-01-13 23:20:00,
2013-01-13 18:25:00,64.6,56.1,30.05,South,177,0.0,0.0,74,0.00,,,0.00,Wunderground v.1.15,2013-01-13 23:25:00,
2013-01-13 18:30:00,64.5,56.0,30.06,South,177,0.0,0.0,74,0.00,,,0.00,Wunderground v.1.15,2013-01-13 23:30:00,
2013-01-13 18:35:00,64.3,55.8,30.05,South,177,0.0,0.0,74,0.00,,,0.00,Wunderground v.1.15,2013-01-13 23:35:00,
2013-01-13 18:40:00,64.3,56.2,30.05,South,177,0.0,0.0,75,0.00,,,0.00,Wunderground v.1.15,2013-01-13 23:40:00,
2013-01-13 18:45:00,64.3,56.2,30.05,South,177,0.0,0.0,75,0.00,,,0.00,Wunderground v.1.15,2013-01-13 23:45:00,
2013-01-13 18:50:00,64.3,56.2,30.05,South,177,0.0,0.0,75,0.00,,,0.00,Wunderground v.1.15,2013-01-13 23:50:00,
2013-01-13 18:55:00,64.0,55.9,30.05,South,177,0.0,0.0,75,0.00,,,0.00,Wunderground v.1.15,2013-01-13 23:55:00,
2013-01-13 19:00:00,63.8,56.1,30.05,South,177,0.0,0.0,76,0.00,,,0.00,Wunderground v.1.15,2013-01-14 00:00:00,
2013-01-13 19:10:00,63.5,56.2,30.05,South,177,0.0,0.0,77,0.00,,,0.00,Wunderground v.1.15,2013-01-14 00:10:00,
2013-01-13 19:15:00,63.3,56.3,30.05,South,177,0.0,0.0,78,0.00,,,0.00,Wunderground v.1.15,2013-01-14 00:15:00,
2013-01-13 19:20:00,63.3,56.0,30.05,South,177,0.0,0.0,77,0.00,,,0.00,Wunderground v.1.15,2013-01-14 00:20:00,
2013-01-13 19:25:00,63.2,55.9,30.05,South,177,0.0,0.0,77,0.00,,,0.00,Wunderground v.1.15,2013-01-14 00:25:00,
2013-01-13 19:30:00,62.8,55.8,30.05,South,177,0.0,0.0,78,0.00,,,0.00,Wunderground v.1.15,2013-01-14 00:30:00,
2013-01-13 19:35:00,62.8,56.2,30.05,South,177,0.0,0.0,79,0.00,,,0.00,Wunderground v.1.15,2013-01-14 00:35:00,
2013-01-13 19:40:00,62.7,56.1,30.05,South,177,0.0,0.0,79,0.00,,,0.00,Wunderground v.1.15,2013-01-14 00:40:00,
2013-01-13 19:45:00,62.7,56.1,30.04,South,177,0.0,0.0,79,0.00,,,0.00,Wunderground v.1.15,2013-01-14 00:45:00,
2013-01-13 19:50:00,62.7,56.1,30.04,South,177,0.0,0.0,79,0.00,,,0.00,Wunderground v.1.15,2013-01-14 00:50:00,
2013-01-13 19:55:00,62.7,56.1,30.05,South,177,0.0,1.0,79,0.00,,,0.00,Wunderground v.1.15,2013-01-14 00:55:00,
2013-01-13 20:00:00,62.8,56.2,30.05,South,177,0.0,1.0,79,0.00,,,0.00,Wunderground v.1.15,2013-01-14 01:00:00,
2013-01-13 20:10:00,63.0,56.4,30.04,SSW,194,1.0,2.0,79,0.00,,,0.00,Wunderground v.1.15,2013-01-14 01:10:00,
2013-01-13 20:15:00,63.2,56.6,30.04,South,183,0.0,2.0,79,0.00,,,0.00,Wunderground v.1.15,2013-01-14 01:15:00,
2013-01-13 20:20:00,63.3,56.7,30.04,South,170,1.0,1.0,79,0.00,,,0.00,Wunderground v.1.15,2013-01-14 01:20:00,
2013-01-13 20:25:00,63.3,56.7,30.04,South,170,1.0,1.0,79,0.00,,,0.00,Wunderground v.1.15,2013-01-14 01:25:00,
2013-01-13 20:30:00,63.3,56.7,30.04,South,170,1.0,1.0,79,0.00,,,0.00,Wunderground v.1.15,2013-01-14 01:30:00,
2013-01-13 20:35:00,63.3,56.7,30.04,SSE,159,1.0,2.0,79,0.00,,,0.00,Wunderground v.1.15,2013-01-14 01:35:00,
2013-01-13 20:40:00,63.3,56.7,30.03,SSE,159,1.0,1.0,79,0.00,,,0.00,Wunderground v.1.15,2013-01-14 01:40:00,
2013-01-13 20:45:00,63.3,56.7,30.04,SSE,159,1.0,1.0,79,0.00,,,0.00,Wunderground v.1.15,2013-01-14 01:45:00,
2013-01-13 20:50:00,63.3,56.7,30.04,SSE,159,1.0,2.0,79,0.00,,,0.00,Wunderground v.1.15,2013-01-14 01:50:00,
2013-01-13 20:55:00,63.5,56.9,30.04,South,169,1.0,2.0,79,0.00,,,0.00,Wunderground v.1.15,2013-01-14 01:55:00,
2013-01-13 21:00:00,63.7,56.7,30.04,South,169,1.0,1.0,78,0.00,,,0.00,Wunderground v.1.15,2013-01-14 02:00:00,
2013-01-13 21:05:00,63.5,56.5,30.04,South,169,1.0,2.0,78,0.00,,,0.00,Wunderground v.1.15,2013-01-14 02:05:00,
2013-01-13 21:10:00,63.7,56.7,30.03,South,170,1.0,2.0,78,0.00,,,0.00,Wunderground v.1.15,2013-01-14 02:10:00,
2013-01-13 21:15:00,63.7,56.7,30.03,South,170,1.0,2.0,78,0.00,,,0.00,Wunderground v.1.15,2013-01-14 02:15:00,
2013-01-13 21:20:00,63.5,56.5,30.04,South,190,1.0,1.0,78,0.00,,,0.00,Wunderground v.1.15,2013-01-14 02:20:00,
2013-01-13 21:25:00,63.5,56.5,30.04,South,190,1.0,1.0,78,0.00,,,0.00,Wunderground v.1.15,2013-01-14 02:25:00,
2013-01-13 21:30:00,63.5,56.5,30.04,South,187,1.0,1.0,78,0.00,,,0.00,Wunderground v.1.15,2013-01-14 02:30:00,
2013-01-13 21:35:00,63.5,56.5,30.04,South,190,2.0,2.0,78,0.00,,,0.00,Wunderground v.1.15,2013-01-14 02:35:00,
2013-01-13 21:40:00,63.5,56.5,30.04,South,188,2.0,2.0,78,0.00,,,0.00,Wunderground v.1.15,2013-01-14 02:40:00,
2013-01-13 21:45:00,63.5,56.5,30.04,South,186,2.0,2.0,78,0.00,,,0.00,Wunderground v.1.15,2013-01-14 02:45:00,
2013-01-13 21:50:00,63.7,56.7,30.04,SSW,192,2.0,2.0,78,0.00,,,0.00,Wunderground v.1.15,2013-01-14 02:50:00,
2013-01-13 21:55:00,63.7,56.7,30.04,SSW,192,2.0,4.0,78,0.00,,,0.00,Wunderground v.1.15,2013-01-14 02:55:00,
2013-01-13 22:05:00,63.5,56.5,30.04,South,190,2.0,2.0,78,0.00,,,0.00,Wunderground v.1.15,2013-01-14 03:05:00,
2013-01-13 22:10:00,63.3,56.3,30.05,SSW,200,1.0,1.0,78,0.00,,,0.00,Wunderground v.1.15,2013-01-14 03:10:00,
2013-01-13 22:15:00,63.3,56.3,30.05,SSW,208,1.0,1.0,78,0.00,,,0.00,Wunderground v.1.15,2013-01-14 03:15:00,
2013-01-13 22:20:00,63.2,56.2,30.05,SSW,208,1.0,2.0,78,0.00,,,0.00,Wunderground v.1.15,2013-01-14 03:20:00,
2013-01-13 22:25:00,63.0,56.4,30.04,South,170,1.0,2.0,79,0.00,,,0.00,Wunderground v.1.15,2013-01-14 03:25:00,
2013-01-13 22:30:00,63.0,56.4,30.04,SSW,206,1.0,2.0,79,0.00,,,0.00,Wunderground v.1.15,2013-01-14 03:30:00,
2013-01-13 22:40:00,63.2,56.6,30.05,South,175,1.0,1.0,79,0.00,,,0.00,Wunderground v.1.15,2013-01-14 03:40:00,
2013-01-13 22:45:00,63.2,56.6,30.05,South,169,1.0,1.0,79,0.00,,,0.00,Wunderground v.1.15,2013-01-14 03:45:00,
2013-01-13 22:50:00,63.0,56.4,30.05,South,169,1.0,2.0,79,0.00,,,0.00,Wunderground v.1.15,2013-01-14 03:50:00,
2013-01-13 22:55:00,63.0,56.4,30.05,SSW,194,1.0,2.0,79,0.00,,,0.00,Wunderground v.1.15,2013-01-14 03:55:00,
2013-01-13 23:00:00,62.8,56.2,30.05,SSW,194,2.0,3.0,79,0.00,,,0.00,Wunderground v.1.15,2013-01-14 04:00:00,
2013-01-13 23:05:00,62.8,56.2,30.05,SSW,206,2.0,4.0,79,0.00,,,0.00,Wunderground v.1.15,2013-01-14 04:05:00,
2013-01-13 23:10:00,62.8,56.2,30.05,SSW,206,2.0,2.0,79,0.00,,,0.00,Wunderground v.1.15,2013-01-14 04:10:00,
2013-01-13 23:20:00,62.7,56.4,30.06,South,180,1.0,1.0,80,0.00,,,0.00,Wunderground v.1.15,2013-01-14 04:20:00,
2013-01-13 23:30:00,62.5,56.2,30.06,South,180,1.0,2.0,80,0.00,,,0.00,Wunderground v.1.15,2013-01-14 04:30:00,
2013-01-13 23:35:00,62.5,56.2,30.06,SSW,201,1.0,2.0,80,0.00,,,0.00,Wunderground v.1.15,2013-01-14 04:35:00,
2013-01-13 23:40:00,62.7,56.8,30.06,South,175,2.0,2.0,81,0.00,,,0.00,Wunderground v.1.15,2013-01-14 04:40:00,
2013-01-13 23:45:00,62.5,56.6,30.06,SSW,208,1.0,2.0,81,0.00,,,0.00,Wunderground v.1.15,2013-01-14 04:45:00,
2013-01-13 23:50:00,62.5,56.6,30.06,SSW,198,1.0,2.0,81,0.00,,,0.00,Wunderground v.1.15,2013-01-14 04:50:00,
2013-01-13 23:55:00,62.5,56.6,30.06,South,188,3.0,5.0,81,0.00,,,0.00,Wunderground v.1.15,2013-01-14 04:55:00,